Regional Weather Roundup
Issued by NWS

Home | Current Version | Previous Version | Graphics & Text | Print | Product List | Glossary On
Versions: 1 2 3 4 5 6 7 8 9 10 11 12 13 14 15 16 17 18 19 20 21 22 23 24 25 26 27 28 29 30 31 32 33 34 35 36 37 38 39 40 41 42 43 44 45 46 47 48 49 50
000
ASUS43 KLOT 262303
RWRIL

ILLINOIS REGIONAL WEATHER ROUNDUP
NATIONAL WEATHER SERVICE CHICAGO/ROMEOVILLE IL
600 PM CDT TUE JUL 26 2016

NOTE: "FAIR" INDICATES FEW OR NO CLOUDS BELOW 12,000 FEET WITH NO
SIGNIFICANT WEATHER AND/OR OBSTRUCTIONS TO VISIBILITY.

* THESE STATIONS ARE NOT UNDER NWS QUALITY CONTROL. THEY ALSO MAY NOT
  REPORT WEATHER SUCH AS PRECIPITATION OR FOG.

ILZ001-002-007-009-015-016-024-270000-
NORTHWEST ILLINOIS

CITY           SKY/WX    TMP DP  RH WIND       PRES   REMARKS
MOLINE         SUNNY     86  64  47 E9        30.00R HX  87
STERLING*      MOSUNNY   87  67  51 NW5       30.02R HX  90
SAVANNA*       PTSUNNY   86  65  49 CALM      30.02R HX  87
$$

ILZ003-004-008-010-011-017-018-270000-
NORTH CENTRAL ILLINOIS

CITY           SKY/WX    TMP DP  RH WIND       PRES   REMARKS
ROCKFORD       MOSUNNY   86  64  47 NW3       30.02F HX  87
FREEPORT*      SUNNY     83  63  51 CALM      30.04R HX  84
ROCHELLE*      SUNNY     83  64  51 CALM      30.02S HX  85
DE KALB*       SUNNY     83  66  57 N3        30.02S HX  85
$$

ILZ005-006-012>014-019>023-270000-
NORTHEAST ILLINOIS

CITY           SKY/WX    TMP DP  RH WIND       PRES   REMARKS
CHICAGO-OHARE  MOSUNNY   85  64  49 E8        29.99F HX  86
CHICAGO-MIDWAY MOSUNNY   85  63  47 E9        29.99F HX  86
AURORA         SUNNY     85  68  56 W5        30.00F HX  88
LANSING*       SUNNY     83  62  48 NE6       30.00S HX  84
WAUKEGAN       SUNNY     81  64  56 E6        30.00F HX  82
DUPAGE AIRPORT PTSUNNY   86  65  49 NW6       29.99F HX  88
KANKAKEE*      SUNNY     84  69  59 SE5       30.02R HX  88
WHEELING       SUNNY     83  61  47 NE7       30.01S HX  83
MORRIS*        CLOUDY    84  69  59 CALM      29.99S HX  88
NORTHERLY ISL    N/A     79  70  74 NE3         N/A  HX  82
$$

LMZ740>746-270000-
SOUTHERN LAKE MICHIGAN

STATION/POSITION SKY/WX   TEMP    WIND        PRES    VSBY  WAVE
                          AIR SEA DIR/SP/G                  HT/PER
                          (F)     (DEG/KT/KT) (MB)    (MI)  (FT/S)
SOUTHERN BUOY              77 76  240/  2/  2 1015.8          0
WILMETTE HARBOR            77 74  120/  4/  4   N/A           0
HARRISON CRIB              79      70/  7/  7   N/A
BURNHAM HARBOR             79      50/  3/  5   N/A
CALUMET HARBOR             78                   N/A
BURNS HARBOR               79      60/  8/  9 1016.6F
MICHIGAN CITY              78      20/  8/  9   N/A
MICHIGAN CITY 6N           78 78   40/  6/  6   N/A           1
ST. JOSEPH                 77 77  350/  6/  8 1016.0F         1
$$

ILZ025>027-034>036-040-047-049-050-058-095>099-270000-
WEST-CENTRAL ILLINOIS

CITY           SKY/WX    TMP DP  RH WIND       PRES   REMARKS
QUINCY         SUNNY     86  64  47 NE6       29.99S HX  87
GALESBURG*     MOSUNNY   85  66  52 CALM      30.01R HX  87
MACOMB*        SUNNY     83  67  56 CALM      30.03R HX  86
JACKSONVILLE*  MOSUNNY   85  70  60 E7        29.99S HX  90
PITTSFIELD*    SUNNY     86  71  60 E3        30.01S HX  91
$$

ILZ028>032-037-038-041>044-048-051>054-059>061-270000-
CENTRAL ILLINOIS

CITY           SKY/WX    TMP DP  RH WIND       PRES   REMARKS
PONTIAC        SUNNY     84  72  66 SE5       30.02R HAZE    HX  90
BLOOMINGTON    MOSUNNY   82  70  66 S8        30.03R HX  86
DECATUR        SUNNY     84  68  58 E8        30.01S HX  87
PEORIA         PTSUNNY   86  68  54 VRB3      30.00R HX  89
LACON*         SUNNY     83  67  56 CALM      29.99S HX  86
LINCOLN*       MOSUNNY   85  72  66 SE5       30.00S HX  91
SPRINGFIELD    SUNNY     86  69  56 E7        30.00S HX  90
TAYLORVILLE    SUNNY     82  70  65 MISG      30.00F HX  86
$$

ILZ033-039-045-046-055>057-062-063-270000-
EAST-CENTRAL ILLINOIS

CITY           SKY/WX    TMP DP  RH WIND       PRES   REMARKS
CHAMPAIGN      SUNNY     83  70  64 E5        30.02R HX  87
MATTOON        SUNNY     82  67  60 NE7       30.00S HX  84
PARIS*         SUNNY     82  69  64 CALM      30.02S HX  85
$$

ILZ079-100>102-270000-
SOUTHWEST ILLINOIS

CITY           SKY/WX    TMP DP  RH WIND       PRES   REMARKS
ALTON          MOSUNNY   84  73  70 E6        29.98S HX  91
BELLEVILLE     CLOUDY    84  80  88 SW9       29.97S HX  98
CAHOKIA*       CLOUDY    84  75  74 S10       29.97S HX  92
SPARTA*        CLOUDY    79  76  89 S9        30.01S HX  83
$$

ILZ064>066-069>071-074>076-080>082-084>086-088>090-092>094-270000-
SOUTH-CENTRAL ILLINOIS

CITY           SKY/WX    TMP DP  RH WIND       PRES   REMARKS
CARBONDALE     PTSUNNY   77  74  90 CALM      29.98F
CAIRO*         CLOUDY    78  75  90 NW6       29.97S HX  80
EFFINGHAM*     MOSUNNY   84  75  73 NE3       30.01S HX  92
MARION         LGT RAIN  77  75  94 N5        30.00F
MT. VERNON     CLOUDY    81  70  69 MISG      29.99S HX  84
CENTRALIA*     PTSUNNY   83  77  81 S7        29.99S HX  91
SALEM*         CLOUDY    85  75  72 CALM      29.99S HX  94
METROPOLIS*    CLOUDY    79  75  87 CALM      29.97F HX  83
$$

ILZ067-068-072-073-078-083-087-091-270000-
SOUTHEAST ILLINOIS

CITY           SKY/WX    TMP DP  RH WIND       PRES   REMARKS
LAWRENCEVILLE  PTSUNNY   85  74  69 MISG      29.99R HX  92
FLORA*         CLOUDY    85  75  71 CALM      29.99S HX  94
FAIRFIELD*     CLOUDY    81  73  76 S5        29.99R THUNDER HX  86
HARRISBURG*    LGT RAIN  76  76  98 W6        30.01R
ROBINSON*      MOSUNNY   83  73  72 N5        30.00S HX  88
CARMI*         DRIZZLE   80  78  94 W7        29.99R HX  88
$$

ABBREVIATIONS USED IN REMARKS
   TC - TEMPERATURE IN CELSIUS
  WCI - WIND CHILL INDEX
   HX - HEAT INDEX
  VSB - VISIBILITY
$$





USA.gov is the U.S. government's official web portal to all federal, state and local government web resources and services.